[keps] ob120119.2l.amsat

Ray Hoad ray.hoad at mypbmail.com
Thu Jan 19 18:55:50 PST 2012


SB KEPS @ AMSAT  $ORB12019.N
2Line Orbital Elements 12019.AMSAT

HR AMSAT ORBITAL ELEMENTS FOR AMATEUR SATELLITES IN NASA FORMAT
FROM WA5QGD FORT WORTH,TX January 19, 2012
Send SUBSCRIBE KEPS/UNSUBSCRIBE KEPS to majordomo at amsat.org only
BID: ORB12019.N

DECODE 2-LINE ELSETS WITH THE FOLLOWING KEY:
1 AAAAAU 00  0  0 BBBBB.BBBBBBBB  .CCCCCCCC  00000-0  00000-0 0  DDDZ
2 AAAAA EEE.EEEE FFF.FFFF GGGGGGG HHH.HHHH III.IIII JJ.JJJJJJJJKKKKKZ
KEY: A-CATALOGNUM B-EPOCHTIME C-DECAY D-ELSETNUM E-INCLINATION F-RAAN
G-ECCENTRICITY H-ARGPERIGEE I-MNANOM J-MNMOTION K-ORBITNUM Z-CHECKSUM

TO ALL RADIO AMATEURS BT

AO-07
1 07530U 74089B   12019.03096837 -.00000027  00000-0  10000-3 0  2843
2 07530 101.3974 022.0751 0011784 216.5746 143.4517 12.53587100701231
FO-29
1 24278U 96046B   12019.21489772  .00000005  00000-0  39384-4 0  7557
2 24278 098.5749 139.5767 0351195 057.6736 305.7906 13.52975513761671
SO-33
1 25509U 98061B   12019.31779474  .00000365  00000-0  60414-4 0  1478
2 25509 031.4344 101.7229 0353034 331.9485 026.2535 14.28653930691207
RS-22
1 27939U 03042A   12019.72260765  .00000462  00000-0  96912-4 0    58
2 27939 097.8235 228.1016 0013922 023.3606 336.8227 14.63871333444016
VO-52
1 28650U 05017B   12019.85275160  .00000692  00000-0  91684-4 0    36
2 28650 097.6169 058.0114 0026646 168.9329 191.2488 14.82619960362844
SO-67
1 35870U 09049F   12019.73511875  .00003469  00000-0  15230-3 0  6033
2 35870 097.2539 060.7119 0002366 022.2094 115.3315 15.22579031129860
HO-68
1 36122U 09072B   12019.78476535 -.00000044  00000-0  00000 0 0  1204
2 36122 100.3849 082.0215 0007766 091.0181 269.1815 13.16292582100737
UO-11
1 14781U 84021B   12019.33740084  .00000635  00000-0  90348-4 0  7651
2 14781 097.9773 080.0326 0009307 152.4095 207.7610 14.80280844497764
AO-16
1 20439U 90005D   12018.86495143  .00000133  00000-0  65437-4 0  3769
2 20439 098.4127 326.5887 0010023 244.3831 115.6315 14.32008634148489
LO-19
1 20442U 90005G   12019.39994680  .00000151  00000-0  71457-4 0  3008
2 20442 098.3779 330.6492 0011156 233.3635 126.6514 14.32229998148741
AO-27
1 22825U 93061C   12018.89183214  .00000099  00000-0  55660-4 0   115
2 22825 098.5583 324.1794 0008618 007.1156 353.0147 14.29422173955009
IO-26
1 22826U 93061D   12019.06124886  .00000097  00000-0  54583-4 0  7585
2 22826 098.5527 324.7570 0009084 000.7998 359.3208 14.29691826955153
GO-32
1 25397U 98043D   12019.51570968 -.00000094  00000-0 -23587-4 0  6827
2 25397 098.3468 005.7252 0001704 033.7365 326.3930 14.23252262702730
NO-44
1 26931U 01043C   12019.76395178  .00000403  00000-0  18884-3 0  9492
2 26931 067.0517 145.4366 0005617 278.9894 081.0568 14.29753247537887
SO-50
1 27607U 02058C   12019.53094541  .00000712  00000-0  12826-3 0  6675
2 27607 064.5586 030.0812 0084861 277.4282 081.7185 14.72168393487936
CO-55
1 27844U 03031E   12019.57512595  .00000189  00000-0  10736-3 0  2917
2 27844 098.7049 030.1273 0009229 297.6861 062.3391 14.20947544443646
CO-57
1 27848U 03031J   12018.56716377  .00000140  00000-0  85473-4 0  2393
2 27848 098.7137 028.4035 0009034 305.8022 054.2310 14.20708757443449
AO-51
1 28375U 04025K   12018.94947204  .00000165  00000-0  62007-4 0  1721
2 28375 098.1255 351.3901 0083798 135.4210 225.3734 14.40884510397134
CP3
1 31129U 07012N   12019.57513408  .00000620  00000-0  15155-3 0   722
2 31129 097.8870 036.1577 0100707 228.0715 131.1862 14.52855850252257
CO-65
1 32785U 08021C   12018.69404457  .00001223  00000-0  15808-3 0  2061
2 32785 097.8216 083.1954 0014440 189.6401 170.4517 14.82621130201468
PRISM
1 33493U 09002B   12019.72393105  .00002246  00000-0  28195-3 0  3453
2 33493 098.1481 157.0240 0020168 063.0040 297.3237 14.83065682161592
SOHLA-1
1 33496U 09002E   12019.89028227  .00000480  00000-0  88620-4 0  6275
2 33496 098.0934 132.7555 0007065 148.0061 212.1575 14.69845197160314
TISAT-1
1 36799U 10035E   12019.35333466  .00001343  00000-0  17846-3 0  6176
2 36799 098.0782 094.5618 0013998 300.1378 059.8451 14.81425326 82306
STUDSAT
1 36801U 10035G   12018.86998676  .00003047  00000-0  38254-3 0  3216
2 36801 098.0845 094.2446 0012283 288.4371 071.5498 14.82862483 82237
OOREOS
1 37224U 10062C   11330.25217324  .00002151  00000-0  30897-3 0 00339
2 37224 071.9741 041.3371 0020052 337.4654 022.5620 14.77385090005948
FO-69
1 37227U 0        12018.13838078  .00000422  00000-0  67820-4 0 00795
2 37227 071.9715 285.2240 0018772 243.3066 116.6174 14.76896760013795
FO-70
1 37380U 0        12018.38985263  .00000483  00000-0  76901-4 0 00833
2 37380 071.9747 285.0401 0019270 240.0754 119.8494 14.76656006013729
NOAA-10
1 16969U 86073A   12019.51695955  .00000074  00000-0  47714-4 0  7854
2 16969 098.5997 051.1169 0011782 316.2725 043.7531 14.27521379318510
NOAA-11
1 19531U 88089A   12019.30388665 -.00000004  00000-0  20433-4 0  7858
2 19531 098.7398 107.5782 0010491 293.5672 066.4426 14.14949347203317
NOAA-12
1 21263U 91032A   12019.82084288  .00000074  00000-0  31439-4 0  2754
2 21263 098.7388 042.1105 0012895 275.4173 084.6026 14.25472529 75252
MET-3/5
1 21655U 91056A   12019.33991688  .00000051  00000-0  10000-3 0  3141
2 21655 082.5558 258.0476 0013199 342.1734 017.8930 13.17032721982175
MET-2/21
1 22782U 93055A   12018.89239785  .00000073  00000-0  52521-4 0  3146
2 22782 082.5496 151.7529 0021731 211.2041 148.7819 13.83674784928381
OKEAN-4
1 23317U 94066A   12018.90540078  .00001034  00000-0  12219-3 0  7800
2 23317 082.5397 171.6548 0022866 125.0736 235.2629 14.83532053932526
NOAA-14
1 23455U 94089A   12019.51739959  .00000024  00000-0  36056-4 0  7572
2 23455 098.8374 104.8551 0009970 029.4058 330.7675 14.13871120879640
NOAA-15
1 25338U 98030A   12019.43332366  .00000169  00000-0  91073-4 0  1064
2 25338 098.6767 007.8641 0010592 179.5719 180.5503 14.25020720711529
RESURS
1 25394U 98043A   12019.83709279  .00000023  00000-0  27577-4 0  9936
2 25394 098.3086 016.0243 0001401 356.7292 003.3878 14.24269488703147
FENGYUN1
1 25730U 99025A   12019.91639754  .00000909  00000-0  54706-3 0  5189
2 25730 098.8341 341.6137 0021493 068.5421 291.8038 14.09166951653582
OKEAN-0
1 25860U 99039A   12019.86257599  .00000421  00000-0  71426-4 0  5239
2 25860 097.9144 345.7540 0001646 041.6643 318.4692 14.74057411672570
NOAA-16
1 26536U 00055A   12019.45591406  .00000128  00000-0  93954-4 0  5901
2 26536 099.1163 059.1245 0011091 142.6908 217.5064 14.12696717583893
NOAA-17
1 27453U 02032A   12019.54227445  .00000289  00000-0  14270-3 0  5671
2 27453 098.3551 054.0237 0010964 233.0413 126.9775 14.24384792497451
NOAA-18
1 28654U 05018A   12019.51003830  .00000375  00000-0  23122-3 0   430
2 28654 099.0263 336.5133 0013897 213.8762 146.1532 14.11593249343446
NOAA-19
1 33591U 09005A   12019.48445497 -.00000043  00000-0  39777-6 0  2320
2 33591 098.8506 321.2433 0014938 084.3212 275.9662 14.11279969151892
HUBBLE
1 20580U 90037B   12019.25301921  .00001548  00000-0  10243-3 0  9250
2 20580 028.4706 044.4221 0003386 255.5194 104.4972 15.02106640992161
ISS
1 25544U 98067A   12019.95123964  .00015195  00000-0  19689-3 0  8527
2 25544 051.6419 150.6937 0021741 299.7667 159.1394 15.58830540754748
CO-58
1 28895U 05043F   12018.63830026  .00000548  00000-0  12208-3 0   763
2 28895 097.9370 251.3455 0016728 263.6475 096.2810 14.60447244331684
FALCON
1 30776U 07006E   12019.66030452  .00003357  00000-0  22585-3 0  2632
2 30776 035.4324 109.3477 0001728 164.2745 195.8026 15.06421842267687
MAST
1 31126U 07012K   12019.55519923  .00000399  00000-0  99618-4 0  3627
2 31126 097.8807 039.3823 0093097 216.6993 142.7796 14.54009120252524
CAPE1
1 31130U 07012P   12018.70531307  .00000473  00000-0  11841-3 0  3734
2 31130 097.8873 035.0754 0100861 231.3900 127.8153 14.52736719251921
COMPASS
1 32787U 08021E   12019.08222452  .00002273  00000-0  28284-3 0  2002
2 32787 097.8209 083.6584 0015212 188.3387 171.7609 14.83411905201557
AAUSAT2
1 32788U 08021F   12019.08186031  .00002360  00000-0  29151-3 0  1904
2 32788 097.8235 083.9655 0014988 187.2382 172.8632 14.83681495201574
DO-64
1 32789U 08021G   12019.05679726  .00002791  00000-0  33485-3 0  2061
2 32789 097.8327 085.4494 0014930 186.0137 174.0896 14.84761562201590
CO-66
1 32791U 08021J   12019.08571033  .00002015  00000-0  25438-3 0  1943
2 32791 097.8227 083.5096 0015475 188.1135 171.9854 14.82934738201499
RS-30
1 32953U 08025A   12019.50109705  .00000010  00000-0  00000 0 0  4486
2 32953 082.5004 028.2202 0017587 275.5231 084.3848 12.43020120165969
TACSAT-3
1 35001U 09028A   12019.88224883  .00078579  00000-0  64840-3 0  8376
2 35001 040.4502 283.1829 0007442 292.0072 068.0002 15.69259585150847
PHARMSAT
1 35002U 09028B   12019.12487319  .00043189  00000-0  46676-3 0  7701
2 35002 040.4676 290.2498 0007387 017.3787 342.7802 15.62627700150706
HAWKSAT1
1 35003U 09028C   11276.79285837  .02274821  58283-2  19360-2 0  8114
2 35003 040.4398 174.3672 0011414 274.3918 085.3844 16.13812532134570
CP6
1 35004U 09028D   11247.64656856  .16152067  73217-5  10011-2 0  7842
2 35004 040.4403 342.9642 0002956 038.0069 322.2231 16.41039951130139
METEOR-M
1 35865U 09049A   12019.75320813 -.00000011  00000-0  14802-4 0   792
2 35865 098.6768 076.7329 0003099 115.0103 245.1410 14.21853912121365
RS-38
1 35869U 09049E   12019.79570369  .00000018  00000-0  27803-4 0   761
2 35869 098.6743 076.7927 0005264 118.7773 241.3927 14.22050242121384
ARISSAT1
1 37772U 98067CK  12004.04884568  .13494171  12416-4  77857-3 0  4794
2 37772 051.6129 213.1240 0007478 255.9283 104.1611 16.41716225 24077
JUGNU
1 37839U 11058B   12018.79217997  .00000619  00000-0  19019-3 0   718
2 37839 019.9595 189.3324 0019762 008.1532 351.9086 14.12017961 13967
SRMSAT
1 37841U 11058D   12018.85471115  .00000264  00000-0  00000 0 0   714
2 37841 019.9714 190.8786 0011907 338.7752 021.2198 14.10108963 13941
RAX-2
1 37853U 11061D   12019.91531190  .00005266  00000-0  43189-3 0   748
2 37853 101.7091 352.3333 0251791 055.9848 306.4999 14.78488506 12322
AUBIESAT
1 37854U 11061E   12018.88838242  .00005084  00000-0  41132-3 0   757
2 37854 101.7118 350.9164 0253649 058.5157 304.0576 14.78718259 12163
HRBE
1 37855U 11061F   12019.83797826  .00005293  00000-0  42776-3 0   753
2 37855 101.7131 352.2862 0253992 055.6439 306.8516 14.78669272 12301
/EX


More information about the Keps mailing list